User: anonymous   Login
Location: Invercargill
(46.4000°S, 168.3500°E)
Time: 13:34:29
(UTC+13:00)
Language:

Resurs 01 Rocket - Orbit

View from above orbital plane
View from above orbital plane
View from above satellite
View from above satellite

Ground track
Ground track

The orbit data is extracted from the following two-line orbital elements,

1 23343U 94074B   19325.14951123  .00000016  00000-0  96898-5 0  9997
2 23343  98.0321  14.6201 0008249 102.6261 316.8480 14.76799496347731
Epoch (UTC): 21 November 2019 03:35:17
Eccentricity: 0.0008249
inclination: 98.0321°
perigee height: 633 km
apogee height: 645 km
right ascension of ascending node: 14.6201°
argument of perigee: 102.6261°
revolutions per day: 14.76799496
mean anomaly at epoch: 316.8480°
orbit number at epoch: 34773

The dashed part of the orbit path shows where the satellite is in the earth's shadow,  

DLR